Weather History for KDEC - November, 2012

Change the Weather History Date:

Sunday, November 4, 2012

  Actual Average Record
Temperature  
Mean Temperature 39 °F 48 °F  
Max Temperature 49 °F 58 °F 75 °F (2003)
Min Temperature 29 °F 39 °F 29 °F (2012)
Degree Days  
Heating Degree Days 26 17  
Month to date heating degree days 92 66  
Since 1 July heating degree days 553 484  
Cooling Degree Days 0 0  
Month to date cooling degree days 0 0  
Year to date cooling degree days 1427 1048  
Moisture  
Dew Point 32 °F    
Average Humidity 78    
Maximum Humidity 100    
Minimum Humidity 56    
Precipitation  
Precipitation 0.00 in 0.11 in 0.45 in (2014)
Month to date precipitation 0.19 0.43  
Year to date precipitation 22.89 32.91  
Sea Level Pressure  
Sea Level Pressure 30.23 in    
Wind  
Wind Speed 3 mph (North)    
Max Wind Speed 10 mph    
Max Gust Speed 13 mph    
Visibility 9 miles    
Events      
T = Trace of Precipitation, MM = Missing Value Source: NWS Daily Summary

Daily Weather History Graph

Daily Weather History Graph

Search for Another Location

Airport or City:

Trip Planner

Search our weather history database for the weather conditions in past years. The results will help you decide how hot, cold, wet, or windy it might be!

Date:

Astronomy

Nov. 04, 2012 Rise Set
Actual Time 6:28 AM CST 4:49 PM CST
Civil Twilight 5:59 AM CST 5:17 PM CST
Nautical Twilight 5:27 AM CST 5:49 PM CST
Astronomical Twilight 4:56 AM CST 6:21 PM CST
Moon 9:27 PM CST (11/4) 11:11 AM CST (11/4)
Length of Visible Light 11h 17m
Length of Day
10h 21m
Waning Gibbous, 72% of the Moon is Illuminated
Nov 4
Waning Gibbous
Nov 6
Last Quarter
Nov 13
New
Nov 20
First Quarter
Nov 28
Full

Hourly Weather History & Observations

Time (CST) Temp. Windchill Dew Point Humidity Pressure Visibility Wind Dir Wind Speed Gust Speed Precip Events Conditions
12:54 AM 32.0 °F 25.6 °F 30.0 °F 92% 30.22 in 10.0 mi North 6.9 mph - N/A   Clear
1:54 AM 30.9 °F 25.2 °F 30.0 °F 96% 30.23 in 10.0 mi North 5.8 mph - N/A   Clear
1:54 AM 30.9 °F 24.3 °F 28.9 °F 92% 30.22 in 10.0 mi North 6.9 mph - N/A   Clear
2:54 AM 32.0 °F 26.4 °F 30.9 °F 96% 30.23 in 10.0 mi NNW 5.8 mph - N/A   Mostly Cloudy
3:54 AM 30.9 °F - 30.0 °F 96% 30.23 in 8.0 mi Calm Calm - N/A   Clear
4:54 AM 30.9 °F 27.5 °F 30.9 °F 100% 30.25 in 8.0 mi NW 3.5 mph - N/A   Clear
5:54 AM 28.9 °F 25.2 °F 28.0 °F 96% 30.25 in 8.0 mi NNW 3.5 mph - N/A   Partly Cloudy
6:11 AM 30.2 °F - 30.2 °F 100% 30.22 in 9.0 mi Calm Calm - N/A   Mostly Cloudy
6:54 AM 30.0 °F - 28.9 °F 96% 30.26 in 7.0 mi Calm Calm - N/A   Partly Cloudy
7:54 AM 36.0 °F 32.1 °F 34.0 °F 93% 30.26 in 8.0 mi North 4.6 mph - 0.01 in   Clear
8:54 AM 41.0 °F 37.1 °F 36.0 °F 82% 30.27 in 10.0 mi North 5.8 mph - N/A   Overcast
9:54 AM 43.0 °F 39.5 °F 37.0 °F 80% 30.28 in 10.0 mi NNW 5.8 mph - N/A   Mostly Cloudy
10:54 AM 46.0 °F 43.9 °F 37.0 °F 71% 30.27 in 10.0 mi North 4.6 mph - N/A   Scattered Clouds
11:54 AM 46.9 °F - 35.1 °F 63% 30.25 in 10.0 mi NNW 8.1 mph - N/A   Scattered Clouds
12:54 PM 46.0 °F 42.5 °F 34.0 °F 63% 30.23 in 10.0 mi NE 6.9 mph - N/A   Overcast
1:54 PM 46.0 °F 43.1 °F 34.0 °F 63% 30.22 in 10.0 mi North 5.8 mph - N/A   Overcast
2:54 PM 48.0 °F - 34.0 °F 58% 30.22 in 10.0 mi North 6.9 mph - N/A   Scattered Clouds
3:54 PM 46.0 °F 43.9 °F 32.0 °F 58% 30.21 in 10.0 mi WNW 4.6 mph - N/A   Overcast
4:54 PM 43.0 °F - 32.0 °F 65% 30.21 in 10.0 mi Calm Calm - N/A   Partly Cloudy
5:54 PM 37.0 °F - 32.0 °F 82% 30.21 in 10.0 mi Calm Calm - N/A   Clear
6:54 PM 37.0 °F - 32.0 °F 82% 30.21 in 10.0 mi Calm Calm - N/A   Clear
7:54 PM 36.0 °F - 33.1 °F 89% 30.21 in 8.0 mi Calm Calm - N/A   Clear
8:54 PM 32.0 °F - 30.0 °F 92% 30.21 in 9.0 mi Calm Calm - N/A   Clear
9:54 PM 33.1 °F - 32.0 °F 96% 30.20 in 7.0 mi Calm Calm - N/A   Clear
10:54 PM 33.1 °F - 30.0 °F 89% 30.20 in 6.0 mi Calm Calm - N/A   Clear